Other Surface Observations
Issued by NWS

Home | Current Version | Previous Version | Text Only | Print | Product List | Glossary On
Versions: 1 2 3 4 5 6 7 8 9 10 11 12 13 14 15 16 17 18 19 20 21 22 23 24 25 26 27 28 29 30 31 32 33 34 35 36 37 38 39 40 41 42 43 44 45 46 47 48 49 50
000
SXUS52 KTAE 010618
OSOTAE
OSOTAE
North Florida/South Alabama/Southwest Georgia Weather Roundup
National Weather Service Tallahassee Florida
200 AM EDT WED OCT 01 2014

Note: "fair" indicates few or no clouds below 12,000 feet with no
significant weather and/or obstructions to visibility.

!FLZ017-115-028-034-025-010700
...North Florida...

CITY           SKY/WX    TMP DP  RH WIND       PRES   REMARKS
TALLAHASSEE    CLEAR     72  69  90 CALM      29.89F
APALACHICOLA   CLEAR     72  69  90 N3        29.89S
PERRY          CLOUDY    63  61  94 CALM      29.90S
CROSS CITY       N/A     74  71  91 E5        29.89S
JACKSONVILLE   CLOUDY    72  70  93 CALM      29.89S
$$

!FLZ112-006-005-002-011-010700
...Florida Panhandle...

CITY           SKY/WX    TMP DP  RH WIND       PRES   REMARKS
MARIANNA       PTCLDY    66  66 100 CALM      29.90S FOG
BONIFAY        FAIR      64  63  96 CALM      29.91F
PANAMA CITY NW FAIR      67  65  93 CALM      29.89S
TYNDALL AFB    CLEAR     71  71 100 NE3       29.90S
TYND DRONE APT FAIR      69  69  99 MISG      29.88S
DE FUNIAK SPR  FAIR      66  66  99 CALM      29.91F
EGLIN AFB      CLEAR     67  65  93 N2        29.90F
DESTIN         CLEAR     71  68  90 NE3       29.90S
HURLBURT       CLEAR     67  63  87 N3        29.89S
CRESTVIEW      PTCLDY    63  62  97 CALM      29.92S
PENSACOLA      CLEAR     70  67  90 NE5       29.90S
$$

!ALZ063-066-010700
...South Alabama...

CITY           SKY/WX    TMP DP  RH WIND       PRES   REMARKS
DOTHAN         CLEAR     63  63 100 CALM      29.94S FOG
OZARK CAIRNS   CLEAR     64  63  97 CALM      29.91S
FT RUCKER HELI PTCLDY    63  62  97 CALM      29.90S FOG
RUCKER HELI 3  FAIR      64  64  99 W1        29.93F
RUCKER HELI 2  FAIR      64  63  96 N3        29.90F
FLORALA APT    CLEAR     65  62  90 CALM      29.93S
ANDALUSIA      CLOUDY    68  63  84 CALM      29.91S HAZE
TROY           PTCLDY    63  61  93 CALM      29.93S
EUFALA         FAIR      63  61  94 CALM      29.91S
MOBILE         CLEAR     69  68  96 SE3       29.90F
$$

!GAZ120>161-010700
...Southwest and South Central Georgia...

CITY           SKY/WX    TMP DP  RH WIND       PRES   REMARKS
THOMASVILLE    CLOUDY    72  72 100 CALM      29.91S
BAINBRIDGE     CLEAR     70  68  94 CALM      29.90F
MOODY AFB      PTCLDY    68  67  95 N3        29.90S
VALDOSTA       CLOUDY    70  68  93 CALM      29.90S
MOULTRIE       CLEAR     68  68 100 CALM      29.92S
BLAKELY        CLEAR     64  64 100 CALM        N/A
ALBANY         CLEAR     67  65  93 CALM      29.93S
TIFTON         FAIR      65  65 100 CALM      29.91S
FITZGERALD       N/A     65  63  91 CALM      29.94S FOG
CORDELE        FAIR      66  64  94 CALM      29.93S
AMERICUS       FAIR      63  63 100 CALM      29.94S FOG
HOMERVILLE     FAIR      72  70  94 CALM      29.91S
$$

!GMZ750-755-770-775-010700
...Coastal and Buoy Obs...

STATION/POSITION TIME  TEMP    WIND        PRES    VSBY  WAVE
                       AIR SEA DIR/SP/G                  HT/PER
                 (UTC) (F)     (DEG/KT/KT) (MB)    (MI)  (FT/S)
KEATON BEACH     0600   73      60/  4/  5 1012.2S
CEDAR KEY        0600   72      40/  8/ 11 1012.2F
C TOWER          0600   77      70/ 12/ 15 1011.7S
APALACHICOLA BUO 0600   80 83   30/ 10/ 12 1011.2S         2/ 4
PANAMA CITY BUOY 0503   79 83   60/  8/ 12 1011.6S         2/ 5
MOBILE BUOY      0500   79 82  120/ 10/ 12 1012.3F         2/ 5
ORANGE BCH AL BU 0600   78 81   90/ 10/ 12 1012.0F         1/ 4
$$



USA.gov is the U.S. government's official web portal to all federal, state and local government web resources and services.